User: anonymous
Location: Albany
(35.0000°S, 118.0000°E)
Time: 04:08:52
(UTC-04:00)
Language:

Atlas Centaur 2 - Orbit

View from above orbital plane
View from above orbital plane
View from above satellite
View from above satellite

Ground track
Ground track

The orbit data is extracted from the following two-line orbital elements,

1 00694U 63047A   14292.76087096  .00001760  00000-0  21934-3 0  6229
2 00694 030.3603 103.4859 0596661 252.9050 228.9494 13.99974431546353
Epoch (UTC): 19 October 2014 18:15:39
Eccentricity: 0.0596661
inclination: 30.3603°
perigee height: 460 km
apogee height: 1328 km
right ascension of ascending node: 103.4859°
argument of perigee: 252.9050°
revolutions per day: 13.99974431
mean anomaly at epoch: 228.9494°
orbit number at epoch: 54635

The dashed part of the orbit path shows where the satellite is in the earth's shadow,  

DLR